Location: Recife
(8.0585°S, 34.8848°W)
Time: 12:04:20
(UTC-03:00)

Vanguard 2 - Pass Details

Date: 17 April 2026
Orbit: 554 x 2894 km, 32.9° (Epoch: 7 May)

Event Time Altitude Azimuth Distance (km) Brightness Sun altitude
Rises 17:24:00 0° 329° (NNW) 3,999 11.9 -2.7°
Reaches altitude 10° 17:26:37 10° 338° (NNW) 3,312 11.3 -3.3°
Maximum altitude 17:34:34 37° 43° (NE) 2,545 9.9 -5.3°
Drops below altitude 10° 17:46:46 10° 104° (ESE) 5,087 11.0 -8.2°
Enters shadow 17:47:18 - 105° (ESE) 5,227 11.1 -8.4°
Sets 17:51:51 0° 111° (ESE) 6,385 - -9.5°
